FW6385 Weather Reports


Display with metric or nautical units.
time (UTC)temp
F
wind
direction
speed
MPH
gust
MPH
rain 1hr
in
rain 24hr
in
rain mn
in
humidity
%
barometer
mb
20260508233436 58 224 4.0 8.0 0.00 0.02 0.01 91 1029.5
20260508230437 56 180 3.0 6.0 0.00 0.02 0.01 95 1029.0
20260508213436 55 180 3.0 5.0 0.00 0.02 0.01 94 1028.8
20260508203436 54 180 3.0 4.0 0.01 0.02 0.01 93 1028.5
20260508193437 55 180 1.0 4.0 0.00 0.01 0.00 93 1028.1
20260508183436 55 180 3.0 5.0 0.00 0.01 0.00 93 1028.4
20260508183430 55 180 1.0 9.0 0.00 0.01 0.00 93 1027.9
20260508163427 54 180 3.0 6.0 0.00 0.01 0.00 93 1028.0
20260508153426 54 180 3.0 6.0 0.00 0.01 0.00 92 1028.4
20260508143427 54 180 3.0 8.0 0.00 0.01 0.00 91 1028.6
20260508133424 55 209 3.0 9.0 0.00 0.01 0.01 90 1028.9
20260508123426 56 212 4.0 9.0 0.00 0.01 0.01 89 1029.2
20260508113422 57 220 4.0 10.0 0.00 0.01 0.01 86 1029.1
20260508103422 57 222 5.0 11.0 0.00 0.01 0.01 85 1029.0
20260508100421 58 180 4.0 14.0 0.00 0.01 0.01 81 1029.0
20260508090421 59 240 4.0 12.0 0.00 0.01 0.01 81 1028.5
20260508073419 60 180 6.0 16.0 0.00 0.01 0.01 82 1028.1
20260508063419 62 180 7.0 15.0 0.00 0.01 0.01 79 1028.1
20260508053418 62 180 7.0 19.0 0.00 0.01 0.01 82 1028.2
20260508043418 64 180 8.0 18.0 0.00 0.01 0.01 79 1028.4
20260508033418 64 211 6.0 17.0 0.00 0.01 0.01 78 1028.8
20260508023416 60 180 8.0 17.0 0.00 0.01 0.01 88 1029.4
20260508013416 60 180 8.0 15.0 0.00 0.01 0.01 91 1030.1
20260508003416 59 256 4.0 14.0 0.01 0.01 0.01 92 1030.1